When you browse on this site, cookies collect data to enhance your experience and personalize the content and advertising you see.
Visit our Privacy Policy to learn more. By continuing to use the site, you agree to this use of cookies and data.
  • In Italy
  • List of Countries
  • For 7 days
  • Water Temperature
  • Satellite Maps
  • Weather Map
  • Weather Widgets
  • user-avatar
    Login

    Hourly Weather Mijakowo

    Today, 20 February, Wednesday

    Time Temperature Precipitation Wind Pressure Humidity
    00:00 +2°C° 0 mm 5 mps 749 mmHg 88%
    01:00 +2°C° 0 mm 5 mps 749 mmHg 88%
    02:00 +2°C° 0 mm 5 mps 749 mmHg 89%
    03:00 +2°C° 0 mm 5 mps 749 mmHg 90%
    04:00 +1°C° 0 mm 5 mps 749 mmHg 90%
    05:00 +1°C° 0 mm 5 mps 749 mmHg 89%
    06:00 +1°C° 0 mm 6 mps 750 mmHg 87%
    07:00 +2°C° 0 mm 6 mps 750 mmHg 85%
    08:00 +2°C° 0.1 mm 6 mps 750 mmHg 81%
    09:00 +3°C° 0.1 mm 7 mps 751 mmHg 77%
    10:00 +3°C° 0.1 mm 7 mps 751 mmHg 73%
    11:00 +3°C° 0.1 mm 7 mps 751 mmHg 72%
    12:00 +3°C° 0.1 mm 7 mps 752 mmHg 70%
    13:00 +4°C° 0.1 mm 7 mps 752 mmHg 68%
    14:00 +4°C° 0 mm 7 mps 752 mmHg 68%
    15:00 +4°C° 0 mm 7 mps 752 mmHg 68%
    16:00 +4°C° 0 mm 6 mps 753 mmHg 68%
    17:00 +3°C° 0 mm 6 mps 753 mmHg 70%
    18:00 +3°C° 0 mm 6 mps 753 mmHg 72%
    19:00 +3°C° 0 mm 5 mps 754 mmHg 73%
    20:00 +2°C° 0 mm 5 mps 754 mmHg 76%
    21:00 +3°C° 0 mm 4 mps 754 mmHg 78%
    22:00 +3°C° 0 mm 4 mps 755 mmHg 80%
    23:00 +1°C° 0 mm 4 mps 755 mmHg 84%

    Tomorrow, 21 February, Thursday

    Time Temperature Precipitation Wind Pressure Humidity
    00:00 +2°C° 0 mm 3 mps 755 mmHg 87%
    01:00 +1°C° 0 mm 3 mps 755 mmHg 91%
    02:00 +1°C° 0 mm 3 mps 755 mmHg 92%
    03:00 +1°C° 0 mm 3 mps 755 mmHg 94%
    04:00 +2°C° 0 mm 2 mps 755 mmHg 95%
    05:00 +3°C° 0.3 mm 2 mps 755 mmHg 95%
    06:00 +2°C° 0.3 mm 3 mps 755 mmHg 96%
    07:00 +2°C° 0.3 mm 3 mps 754 mmHg 96%
    08:00 +3°C° 0.5 mm 4 mps 754 mmHg 93%
    09:00 +3°C° 0.5 mm 4 mps 754 mmHg 91%
    10:00 +3°C° 0.5 mm 5 mps 754 mmHg 88%
    11:00 +3°C° 1 mm 5 mps 753 mmHg 89%
    12:00 +3°C° 1 mm 5 mps 753 mmHg 89%
    13:00 +3°C° 1 mm 5 mps 753 mmHg 90%
    14:00 +3°C° 0.4 mm 5 mps 752 mmHg 89%
    15:00 +3°C° 0.4 mm 5 mps 752 mmHg 89%
    16:00 +4°C° 0.4 mm 6 mps 752 mmHg 89%
    17:00 +4°C° 0.7 mm 6 mps 751 mmHg 90%
    18:00 +4°C° 0.7 mm 6 mps 751 mmHg 90%
    19:00 +4°C° 0.7 mm 6 mps 751 mmHg 90%
    20:00 +4°C° 0.1 mm 6 mps 752 mmHg 90%
    21:00 +4°C° 0.1 mm 6 mps 752 mmHg 90%
    22:00 +4°C° 0.1 mm 6 mps 752 mmHg 90%
    23:00 +4°C° 0.5 mm 6 mps 752 mmHg 90%

    Day after tomorrow, 22 February, Friday

    Time Temperature Precipitation Wind Pressure Humidity
    00:00 +3°C° 0.5 mm 6 mps 753 mmHg 91%
    01:00 +3°C° 0.5 mm 6 mps 753 mmHg 91%
    02:00 +1°C° 0.3 mm 6 mps 754 mmHg 88%
    03:00 -2°C° 0.3 mm 6 mps 755 mmHg 85%
    04:00 -3°C° 0.3 mm 6 mps 755 mmHg 82%
    05:00 -4°C° 0 mm 6 mps 757 mmHg 76%
    06:00 -4°C° 0 mm 6 mps 758 mmHg 70%
    07:00 -5°C° 0 mm 5 mps 760 mmHg 65%
    08:00 -5°C° 0 mm 5 mps 761 mmHg 62%
    09:00 -4°C° 0 mm 6 mps 762 mmHg 60%
    10:00 -4°C° 0 mm 6 mps 763 mmHg 58%
    11:00 -4°C° 0 mm 6 mps 764 mmHg 55%
    12:00 -4°C° 0 mm 5 mps 764 mmHg 51%
    13:00 -4°C° 0 mm 5 mps 765 mmHg 48%
    14:00 -4°C° 0 mm 5 mps 765 mmHg 49%
    15:00 -4°C° 0 mm 5 mps 766 mmHg 50%
    16:00 -3°C° 0 mm 4 mps 766 mmHg 51%
    17:00 -4°C° 0 mm 4 mps 767 mmHg 53%
    18:00 -4°C° 0 mm 4 mps 768 mmHg 54%
    19:00 -5°C° 0 mm 3 mps 768 mmHg 56%
    20:00 -5°C° 0 mm 3 mps 769 mmHg 53%
    21:00 -5°C° 0 mm 3 mps 769 mmHg 51%
    22:00 -5°C° 0 mm 3 mps 769 mmHg 48%
    23:00 -5°C° 0 mm 3 mps 770 mmHg 46%

    23 February, Saturday

    Time Temperature Precipitation Wind Pressure Humidity
    00:00 -4°C° 0 mm 2 mps 770 mmHg 45%
    01:00 -4°C° 0 mm 2 mps 770 mmHg 43%
    02:00 -5°C° 0 mm 2 mps 770 mmHg 44%
    03:00 -3°C° 0 mm 1 mps 770 mmHg 44%
    04:00 -3°C° 0 mm 1 mps 770 mmHg 45%
    05:00 -3°C° 0 mm 1 mps 770 mmHg 45%
    06:00 -3°C° 0 mm 1 mps 770 mmHg 45%
    07:00 -3°C° 0 mm 1 mps 770 mmHg 45%
    08:00 -2°C° 0 mm 1 mps 771 mmHg 40%
    09:00 -1°C° 0 mm 1 mps 771 mmHg 35%
    10:00 0°C° 0 mm 1 mps 771 mmHg 31%
    11:00 -1°C° 0 mm 2 mps 770 mmHg 29%
    12:00 +1°C° 0 mm 2 mps 770 mmHg 28%
    13:00 0°C° 0 mm 3 mps 770 mmHg 27%
    14:00 +1°C° 0 mm 2 mps 770 mmHg 30%
    15:00 +1°C° 0 mm 2 mps 769 mmHg 33%
    16:00 +1°C° 0 mm 2 mps 769 mmHg 37%
    17:00 -1°C° 0 mm 2 mps 769 mmHg 40%
    18:00 -2°C° 0 mm 2 mps 769 mmHg 43%
    19:00 -3°C° 0 mm 2 mps 769 mmHg 46%
    20:00 -2°C° 0 mm 2 mps 768 mmHg 46%
    21:00 -2°C° 0 mm 2 mps 768 mmHg 46%
    22:00 -2°C° 0 mm 3 mps 768 mmHg 47%
    23:00 -2°C° 0 mm 3 mps 767 mmHg 48%

    24 February, Sunday

    Time Temperature Precipitation Wind Pressure Humidity
    00:00 -2°C° 0 mm 3 mps 767 mmHg 49%
    01:00 -2°C° 0 mm 2 mps 767 mmHg 49%
    02:00 -2°C° 0 mm 2 mps 767 mmHg 51%
    03:00 -2°C° 0 mm 2 mps 766 mmHg 53%
    04:00 -3°C° 0 mm 2 mps 766 mmHg 54%
    05:00 -3°C° 0 mm 2 mps 766 mmHg 54%
    06:00 -4°C° 0 mm 3 mps 765 mmHg 55%
    07:00 -4°C° 0 mm 3 mps 765 mmHg 55%
    08:00 -1°C° 0 mm 3 mps 765 mmHg 52%
    09:00 0°C° 0 mm 3 mps 765 mmHg 49%
    10:00 +1°C° 0 mm 3 mps 765 mmHg 46%
    11:00 +2°C° 0 mm 3 mps 765 mmHg 47%
    12:00 +3°C° 0 mm 3 mps 765 mmHg 49%
    13:00 +4°C° 0 mm 3 mps 764 mmHg 50%
    14:00 +5°C° 0 mm 2 mps 764 mmHg 55%
    15:00 +4°C° 0 mm 2 mps 764 mmHg 59%
    16:00 +5°C° 0 mm 1 mps 764 mmHg 64%
    17:00 +4°C° 0 mm 1 mps 764 mmHg 66%
    18:00 +3°C° 0 mm 1 mps 764 mmHg 68%
    19:00 +2°C° 0 mm 1 mps 763 mmHg 71%
    20:00 +2°C° 0 mm 1 mps 763 mmHg 71%
    21:00 +2°C° 0 mm 1 mps 763 mmHg 71%
    22:00 +2°C° 0 mm 1 mps 763 mmHg 70%
    23:00 +2°C° 0 mm 1 mps 763 mmHg 70%

    25 February, Monday

    Time Temperature Precipitation Wind Pressure Humidity
    00:00 +1°C° 0 mm 2 mps 763 mmHg 70%
    01:00 +1°C° 0 mm 2 mps 763 mmHg 70%
    02:00 +1°C° 0 mm 2 mps 763 mmHg 71%
    03:00 +1°C° 0 mm 2 mps 762 mmHg 72%
    04:00 +1°C° 0 mm 2 mps 762 mmHg 73%
    05:00 -1°C° 0 mm 2 mps 762 mmHg 76%
    06:00 -1°C° 0 mm 3 mps 762 mmHg 78%
    07:00 -1°C° 0 mm 3 mps 762 mmHg 81%
    08:00 0°C° 0 mm 3 mps 763 mmHg 79%
    09:00 +2°C° 0 mm 3 mps 763 mmHg 77%
    10:00 +3°C° 0 mm 3 mps 763 mmHg 76%
    11:00 +4°C° 0 mm 3 mps 763 mmHg 77%
    12:00 +5°C° 0 mm 4 mps 763 mmHg 78%
    13:00 +5°C° 0 mm 4 mps 763 mmHg 79%
    14:00 +5°C° 0 mm 3 mps 763 mmHg 80%
    15:00 +5°C° 0 mm 3 mps 763 mmHg 81%
    16:00 +5°C° 0 mm 3 mps 763 mmHg 81%
    17:00 +4°C° 0 mm 3 mps 763 mmHg 85%
    18:00 +3°C° 0 mm 3 mps 763 mmHg 88%
    19:00 +2°C° 0 mm 3 mps 763 mmHg 91%
    20:00 +2°C° 0 mm 3 mps 763 mmHg 91%
    21:00 +2°C° 0 mm 3 mps 763 mmHg 91%
    22:00 +1°C° 0 mm 3 mps 763 mmHg 91%
    23:00 +1°C° 0 mm 3 mps 762 mmHg 91%
    Show more